TOURFACTS.DK  
Stats and Facts from Tour de France.

Tour de France 2019 starts in 348 days
  Riders   Stages   Teams   Summits   Yearly  


 
Search by year

After 2018 - Stage 14:
 15000 starters.
  5163 different riders.
  639 teams.
  2246 stages.
  456 restdays.
  441957.60 km.
  5678 abandonnees.


Top 3
GC
Christopher Froome86:20:55
Rigoberto Urán86:21:49
Romain Bardet86:23:15
Climb
Warren Barguil169 pt.
Primoz Roglic80 pt.
Thomas De Gendt64 pt.
Sprint
Michael Matthews359 pt.
André Greipel234 pt.
Edvald Boasson Hagen220 pt.
Youth
Simon Yates86:27:09
Louis Meintjes86:29:15
Emanuel Buchmann86:54:16
Facts from Tour de France 1990
  |   Stages.  |   Stage winners.  |   Days in yellow  |   Average speed.  |   Route.  |   Teams.  |   All riders.  |   Rookies.  |  

  |   Withdrawls.  |   GC.  |   Polka  |   Green  |   White  |   Summits. (In tour)  |   Miscellaneous.  |  

Stage 7 on July 7th. 1990
         Owning:    Steve Bauer    
Pick a stage:  Pro 1 2 3 4 5 6 7 8 9 10 11 12 13 14 15 16 17 18 19 20 21
From: Vittel    To: ÉpinalDist:61.50 km.

Average speed for all riders in stage:  44,085 km./hr.
    Place:Name:Team:Time:Km/h:
ESPRaúl AlcaláNLDPDM-Concorde01:17:05  +  00:00:00=47,870 
ESPMiguel IndurainESPBanesto01:18:29  +  00:01:24=47,016 
SUIGianni BugnoITAChateau d'Ax01:18:52  +  00:01:47=46,788 
4 ESPPedro DelgadoESPBanesto01:19:10  +  00:02:05=46,611 
5 USAGreg LeMondFRAZ-Peugeot01:19:16  +  00:02:11=46,552 
6 FRAJean-François BernardNLDToshiba01:19:31  +  00:02:26=46,405 
7 FRARonan PensecFRAZ-Peugeot01:19:31  +  00:02:26=46,405 
8 DDRUwe AmplerNLDPDM-Concorde01:19:35  +  00:02:30=46,366 
9 DENTony RomingerITAChateau d'Ax01:19:37  +  00:02:32=46,347 
10 NEDGerrit SolleveldNLDBuckler01:19:45  +  00:02:40=46,270 
11 BELClaude CriquielionBELLotto-Superclub01:19:45  +  00:02:40=46,270 
12 NEDErik BreukinkNLDPDM-Concorde01:19:45  +  00:02:40=46,270 
13 FRAPascal LanceNLDToshiba01:19:47  +  00:02:42=46,250 
14 CANSteve BauerUSA7-Eleven-Hoonved01:19:48  +  00:02:43=46,241 
15 ITAClaudio ChiappucciITACarrera Jeans-Vagabond01:19:54  +  00:02:49=46,183 
16 URSViatcheslav EkimovNLDPanasonic-Sportlife01:19:57  +  00:02:52=46,154 
17 IRLSean KellyNLDPDM-Concorde01:20:00  +  00:02:55=46,125 
18 ESPPello RuizESPO.N.C.E.01:20:02  +  00:02:57=46,106 
19 SUIGuido WinterbergCHEHelvetia-La Suisse01:20:16  +  00:03:11=45,972 
20 FRAThierry MarieFRACastorama-Raleigh01:20:16  +  00:03:11=45,972 
21 COLFabio Parra PintoESPKelme-Ibexpress01:20:26  +  00:03:21=45,877 
22 DENBrian HolmBELHistor-Sigma01:20:27  +  00:03:22=45,867 
23 NEDFrans MaassenNLDBuckler01:20:27  +  00:03:22=45,867 
24 FRAJean-Claude ColottiFRAR.M.O.-Mavic-Liberia01:20:33  +  00:03:28=45,810 
25 BELMichel VermoteFRAR.M.O.-Mavic-Liberia01:20:33  +  00:03:28=45,810 
26 ENGSean YatesUSA7-Eleven-Hoonved01:20:37  +  00:03:32=45,772 
27 FRAFrancis MoreauBELHistor-Sigma01:20:40  +  00:03:35=45,744 
28 FRACharly MottetFRAR.M.O.-Mavic-Liberia01:20:41  +  00:03:36=45,734 
29 ESPMarino LejarretaESPO.N.C.E.01:20:44  +  00:03:39=45,706 
30 NORDag Otto LauritzenUSA7-Eleven-Hoonved01:20:57  +  00:03:52=45,584 
31 FRABruno CornilletFRAZ-Peugeot01:21:02  +  00:03:57=45,537 
32 NEDSteven RooksNLDPanasonic-Sportlife01:21:03  +  00:03:58=45,527 
33 FRAÉric BoyerFRAZ-Peugeot01:21:03  +  00:03:58=45,527 
34 SUIHans-Rüdi MärkiCHEHelvetia-La Suisse01:21:08  +  00:04:03=45,481 
35 FRALuc LeblancFRACastorama-Raleigh01:21:12  +  00:04:07=45,443 
36 AUSStephen HodgeESPO.N.C.E.01:21:15  +  00:04:10=45,415 
37 BELJohan MuseeuwBELLotto-Superclub01:21:20  +  00:04:15=45,369 
38 FRAPascal LinoFRAR.M.O.-Mavic-Liberia01:21:23  +  00:04:18=45,341 
39 ESPJuan MartinezESPBanesto01:21:26  +  00:04:21=45,313 
40 COLWilliam PalacioCOLRyalcao-Postobon01:21:27  +  00:04:22=45,304 
41 SUIOthmar HäfligerCHEHelvetia-La Suisse01:21:29  +  00:04:24=45,285 
42 PORAcacio da SilvaITACarrera Jeans-Vagabond01:21:34  +  00:04:29=45,239 
43 ITAGiancarlo PeriniITACarrera Jeans-Vagabond01:21:34  +  00:04:29=45,239 
44 DENJesper SkibbyNLDTVM01:21:35  +  00:04:30=45,230 
45 BELEric VanderaerdenNLDBuckler01:21:38  +  00:04:33=45,202 
46 NEDGert JakobsNLDPDM-Concorde01:21:43  +  00:04:38=45,156 
47 ESPAnselmo FuerteESPO.N.C.E.01:21:46  +  00:04:41=45,128 
48 FRAFabrice PhilipotFRACastorama-Raleigh01:21:51  +  00:04:46=45,082 
49 SCORobert MillarFRAZ-Peugeot01:21:54  +  00:04:49=45,055 
50 NEDMaarten DucrotNLDTVM01:21:54  +  00:04:49=45,055 
51 ITAFlavio GiupponiITACarrera Jeans-Vagabond01:21:54  +  00:04:49=45,055 
52 IRLStephen RocheBELHistor-Sigma01:22:01  +  00:04:56=44,991 
53 NEDGerrit De VriesNLDBuckler01:22:02  +  00:04:57=44,982 
54 BELJohan BruyneelBELLotto-Superclub01:22:04  +  00:04:59=44,963 
55 DDRMario KummerITAChateau d'Ax01:22:05  +  00:05:00=44,954 
56 ESPMelchor MauriESPO.N.C.E.01:22:06  +  00:05:01=44,945 
57 BELGuy NulensNLDPanasonic-Sportlife01:22:06  +  00:05:01=44,945 
58 BELMarc SergeantNLDPanasonic-Sportlife01:22:11  +  00:05:06=44,900 
59 FRAPhilippe LouviotNLDToshiba01:22:14  +  00:05:09=44,872 
60 URSSergei UslaminITAAlfa Lum01:22:16  +  00:05:11=44,854 
61 URSPiotr UgrumovITAAlfa Lum01:22:25  +  00:05:20=44,772 
62 NEDJelle NijdamNLDBuckler01:22:26  +  00:05:21=44,763 
63 NORAtle KvålsvollFRAZ-Peugeot01:22:26  +  00:05:21=44,763 
64 USAAndy HampstenUSA7-Eleven-Hoonved01:22:27  +  00:05:22=44,754 
65 BELMichel DerniesCHEWeinmann-La Suisse-S.M.M. Uste..01:22:28  +  00:05:23=44,745 
66 FRAGilbert Duclos-LassalleFRAZ-Peugeot01:22:29  +  00:05:24=44,736 
67 DENBjarne RiisFRACastorama-Raleigh01:22:31  +  00:05:26=44,718 
68 ESPEduardo ChozasESPO.N.C.E.01:22:34  +  00:05:29=44,691 
69 DENJohnny WeltzESPO.N.C.E.01:22:34  +  00:05:29=44,691 
70 FRAGilles DelionCHEHelvetia-La Suisse01:22:34  +  00:05:29=44,691 
71 BELRudy DhaenensNLDPDM-Concorde01:22:36  +  00:05:31=44,673 
72 FRAGérard RuéFRACastorama-Raleigh01:22:40  +  00:05:35=44,637 
73 SUIJörg MüllerNLDTVM01:22:41  +  00:05:36=44,628 
74 COLPablo HernandezCOLRyalcao-Postobon01:22:41  +  00:05:36=44,628 
75 SUIBeat BreuCHEWeinmann-La Suisse-S.M.M. Uste..01:22:42  +  00:05:37=44,619 
76 BELPaul HaghedoorenBELHistor-Sigma01:22:44  +  00:05:39=44,601 
77 ITAMassimo GhirottoITACarrera Jeans-Vagabond01:22:46  +  00:05:41=44,583 
78 URSAsiat SaitovITAAlfa Lum01:22:47  +  00:05:42=44,574 
79 NEDEddy SchurerNLDTVM01:22:48  +  00:05:43=44,565 
80 ESPMiguel Angel MartinezESPO.N.C.E.01:22:50  +  00:05:45=44,547 
81 IRLMartin EarleyNLDPDM-Concorde01:22:56  +  00:05:51=44,494 
82 FRAJerôme SimonFRAZ-Peugeot01:22:56  +  00:05:51=44,494 
83 FRAThierry LaurentFRAR.M.O.-Mavic-Liberia01:22:59  +  00:05:54=44,467 
84 NEDEdwig Van HooydonckNLDBuckler01:23:00  +  00:05:55=44,458 
85 URSDimitri KonychevITAAlfa Lum01:23:03  +  00:05:58=44,431 
86 FRAPascal SimonFRACastorama-Raleigh01:23:11  +  00:06:06=44,360 
87 ENGPhil AndersonNLDTVM01:23:13  +  00:06:08=44,342 
88 URSDjamolidine AbduzhaparovITAAlfa Lum01:23:17  +  00:06:12=44,307 
89 ESPHerminio ZabalaESPO.N.C.E.01:23:18  +  00:06:13=44,298 
90 SUINiki RüttimannCHEHelvetia-La Suisse01:23:21  +  00:06:16=44,271 
91 FRAChristian ChaubetNLDToshiba01:23:23  +  00:06:18=44,253 
92 COLAlvaro MejiaCOLRyalcao-Postobon01:23:23  +  00:06:18=44,253 
93 NEDHenri MandersCHEHelvetia-La Suisse01:23:26  +  00:06:21=44,227 
94 SUIKurt SteinmannCHEWeinmann-La Suisse-S.M.M. Uste..01:23:29  +  00:06:24=44,200 
95 COLOscar VargasCOLRyalcao-Postobon01:23:31  +  00:06:26=44,183 
96 NEDAdri Van Der PoelCHEWeinmann-La Suisse-S.M.M. Uste..01:23:35  +  00:06:30=44,148 
97 ESPJosé UreaFRASeur01:23:37  +  00:06:32=44,130 
98 DDRUwe RaabNLDPDM-Concorde01:23:38  +  00:06:33=44,121 
99 USARonald KiefelUSA7-Eleven-Hoonved01:23:39  +  00:06:34=44,112 
100 FRAJean-Claude LeclercqCHEHelvetia-La Suisse01:23:39  +  00:06:34=44,112 
101 FRAFrédéric BrunFRAR.M.O.-Mavic-Liberia01:23:42  +  00:06:37=44,086 
102 BELPeter RoesBELLotto-Superclub01:23:49  +  00:06:44=44,025 
103 BELCarlo BomansCHEWeinmann-La Suisse-S.M.M. Uste..01:23:53  +  00:06:48=43,990 
104 NEDJan SiemonsNLDTVM01:23:54  +  00:06:49=43,981 
105 COLWilliam PulidoCOLRyalcao-Postobon01:23:55  +  00:06:50=43,972 
106 BELPatrick RobeetCHEWeinmann-La Suisse-S.M.M. Uste..01:23:56  +  00:06:51=43,963 
107 SUIPascal RichardCHEHelvetia-La Suisse01:23:58  +  00:06:53=43,946 
108 COLGerardo MoncadaCOLRyalcao-Postobon01:23:58  +  00:06:53=43,946 
109 BELWilfried PeetersBELHistor-Sigma01:24:00  +  00:06:55=43,929 
110 ITAMarcello SiboniITAAriostea01:24:04  +  00:06:59=43,894 
111 BELHendrik RedantBELLotto-Superclub01:24:08  +  00:07:03=43,859 
112 ITAGuido BontempiITACarrera Jeans-Vagabond01:24:10  +  00:07:05=43,842 
113 SUIMauro GianettiCHEHelvetia-La Suisse01:24:11  +  00:07:06=43,833 
114 FRALaurent BiondiBELHistor-Sigma01:24:12  +  00:07:07=43,824 
115 FRADenis RouxNLDToshiba01:24:16  +  00:07:11=43,790 
116 DENSøren LilholtBELHistor-Sigma01:24:18  +  00:07:13=43,772 
117 ITAAlberto ElliITAAriostea01:24:19  +  00:07:14=43,764 
118 FRAJean-Claude BagotFRAR.M.O.-Mavic-Liberia01:24:26  +  00:07:21=43,703 
119 COLJosé FarfánESPKelme-Ibexpress01:24:30  +  00:07:25=43,669 
120 BELJan GoessensCHEWeinmann-La Suisse-S.M.M. Uste..01:24:30  +  00:07:25=43,669 
121 URSVasily ZhdanovITAAlfa Lum01:24:31  +  00:07:26=43,660 
122 USABob RollUSA7-Eleven-Hoonved01:24:31  +  00:07:26=43,660 
123 ITAGiuseppe SaronniESPKelme-Ibexpress01:24:34  +  00:07:29=43,634 
124 COLNelson RodriguezESPKelme-Ibexpress01:24:35  +  00:07:30=43,626 
125 ITAValerio PivaITAAriostea01:24:38  +  00:07:33=43,600 
126 FRADominique ArnaudESPBanesto01:24:47  +  00:07:42=43,523 
127 SUIThomas WegmüllerCHEWeinmann-La Suisse-S.M.M. Uste..01:24:48  +  00:07:43=43,514 
128 GERAndreas KappesNLDToshiba01:24:48  +  00:07:43=43,514 
129 BELEric Van LanckerNLDPanasonic-Sportlife01:24:49  +  00:07:44=43,506 
130 COLNéstor MoraESPKelme-Ibexpress01:24:53  +  00:07:48=43,471 
131 DDROlaf LudwigNLDPanasonic-Sportlife01:24:54  +  00:07:49=43,463 
132 NEDPeter WinnenNLDBuckler01:24:55  +  00:07:50=43,454 
133 BELPatrick VerschuerenBELLotto-Superclub01:24:56  +  00:07:51=43,446 
134 NEDMartin SchalkersNLDTVM01:25:00  +  00:07:55=43,412 
135 COLCarlos JaramilloCOLRyalcao-Postobon01:25:03  +  00:07:58=43,386 
136 ITADavide CassaniITAAriostea01:25:03  +  00:07:58=43,386 
137 NEDJean-Paul van PoppelNLDPanasonic-Sportlife01:25:05  +  00:08:00=43,369 
138 ESPAntonio EspejoESPKelme-Ibexpress01:25:07  +  00:08:02=43,352 
139 ITARoberto ContiITAAriostea01:25:08  +  00:08:03=43,344 
140 NEDToine PoelsNLDBuckler01:25:10  +  00:08:05=43,327 
141 DDRJan SchurITAChateau d'Ax01:25:12  +  00:08:07=43,310 
142 ESPPablo MorenoFRASeur01:25:18  +  00:08:13=43,259 
143 ITAAlberto VolpiITAChateau d'Ax01:25:23  +  00:08:18=43,217 
144 ESPJulian GorospeESPBanesto01:25:25  +  00:08:20=43,200 
145 FRAThierry ClaveyrolatFRAR.M.O.-Mavic-Liberia01:25:28  +  00:08:23=43,175 
146 USAAndrew BishopUSA7-Eleven-Hoonved01:25:30  +  00:08:25=43,158 
147 ITAAdriano BaffiITAAriostea01:25:30  +  00:08:25=43,158 
148 NEDJos Van AertNLDPDM-Concorde01:25:41  +  00:08:36=43,066 
149 BELJos HaexBELLotto-Superclub01:25:41  +  00:08:36=43,066 
150 FRAVincent BarteauFRACastorama-Raleigh01:25:47  +  00:08:42=43,015 
151 FRALaurent PillonBELHistor-Sigma01:25:52  +  00:08:47=42,974 
152 BELPeter De ClercqBELLotto-Superclub01:25:54  +  00:08:49=42,957 
153 ESPÁlvaro PinoFRASeur01:25:55  +  00:08:50=42,949 
154 COLJuan CastilloCOLRyalcao-Postobon01:26:04  +  00:08:59=42,874 
155 ESPJesus RodriguezESPBanesto01:26:05  +  00:09:00=42,865 
156 ESPAntonio DiasESPKelme-Ibexpress01:26:06  +  00:09:01=42,857 
157 FRAÉric CaritouxFRAR.M.O.-Mavic-Liberia01:26:10  +  00:09:05=42,824 
158 ITAAlessandro GiannelliITACarrera Jeans-Vagabond01:26:15  +  00:09:10=42,783 
159 COLReynel MontoyaCOLRyalcao-Postobon01:26:17  +  00:09:12=42,766 
160 SUIErich MächlerITACarrera Jeans-Vagabond01:26:19  +  00:09:14=42,750 
161 FRARoland Le ClercNLDToshiba01:26:20  +  00:09:15=42,741 
162 BELJean-Pierre HeynderickxFRASeur01:26:23  +  00:09:18=42,717 
163 FRAChristophe LavainneFRACastorama-Raleigh01:26:25  +  00:09:20=42,700 
164 ITABruno CenghialtaITAAriostea01:26:29  +  00:09:24=42,667 
165 ENGMaximilian SciandriITACarrera Jeans-Vagabond01:26:32  +  00:09:27=42,643 
166 FRAFrançois LemarchandFRAZ-Peugeot01:26:37  +  00:09:32=42,602 
167 USANorman AlvisUSA7-Eleven-Hoonved01:26:45  +  00:09:40=42,536 
168 PORJosé FerreiraFRASeur01:26:49  +  00:09:44=42,503 
169 ITAGuiseppe CalcaterraITAChateau d'Ax01:26:50  +  00:09:45=42,495 
170 COLAbelardo RondonESPBanesto01:26:56  +  00:09:51=42,446 
171 USADavis PhinneyUSA7-Eleven-Hoonved01:27:01  +  00:09:56=42,406 
172 ESPMarino MonjeESPBanesto01:27:19  +  00:10:14=42,260 
173 BELPatrick JacobsNLDTVM01:27:19  +  00:10:14=42,260 
174 BELWillem Van EyndeBELLotto-Superclub01:27:22  +  00:10:17=42,236 
175 ITAGiovanni FidanzaITAChateau d'Ax01:27:26  +  00:10:21=42,204 
176 URSIvan IvanovITAAlfa Lum01:27:35  +  00:10:30=42,131 
177 ESPJesús RosadoESPKelme-Ibexpress01:27:45  +  00:10:40=42,051 
178 ESPLuis LukinESPBanesto01:28:14  +  00:11:09=41,821 
179 ITARodolfo MassiITAAriostea01:28:23  +  00:11:18=41,750 
180 URSAlexandre TrubineITAAlfa Lum01:28:32  +  00:11:27=41,679 
181 ITARoberto GusmeroliITAChateau d'Ax01:28:44  +  00:11:39=41,585 
182 ITAMauro-Antonio SantaromitaITAChateau d'Ax01:28:52  +  00:11:47=41,523 
183 BELJohan CapiotNLDTVM01:28:53  +  00:11:48=41,515 
184 BELEddy PlanckaertNLDPanasonic-Sportlife01:29:05  +  00:12:00=41,422 
185 AUSAlan PeiperNLDPanasonic-Sportlife01:29:17  +  00:12:12=41,329 
186 DENJohn CarlsenNLDToshiba01:29:48  +  00:12:43=41,091 
187 ESPVicente RidauraFRASeur01:30:04  +  00:12:59=40,970 
188 NEDPatrick TolhoekNLDBuckler01:30:16  +  00:13:11=40,879 
189 URSNikolai GolovatenkoITAAlfa Lum01:31:23  +  00:14:18=40,379 
190 SUIAlfred AckermannCHEWeinmann-La Suisse-S.M.M. Uste..01:33:09  +  00:16:04=39,614 

Withdrawls: 1
 
Rider
Team
Reason
205  ESPMario Lara GalindoESPKelme-IbexpressExceeded time limit

Todays birthdays.

1877  Antoine Perrichon
1878  Auguste Berthault
1911  Théo Herckenrath
1924  Carlo Lafranchi
1931  Armand Di Caro
1937  Jean-Claude Lebaube
1951  Giovanni Battaglin
1961  Pascal Jules
1962  Jean-Claude Leclercq
1976  Janek Tombak
1978  Francisco Pérez
1983  Dries Devenyns




Visits: